Beaufort, SC

4:33 AM EDT on August 24, 2016 (GMT -0400)
Beaufort Marine Corps Air Station

Weather History for KNBC - May, 2012

Change the Weather History Date:

Wednesday, May 2, 2012

  Actual Average Record
Temperature  
Mean Temperature 76 °F -  
Max Temperature 87 °F 81 °F 93 °F (1959)
Min Temperature 64 °F 60 °F 39 °F (1963)
Cooling Degree Days 10    
Growing Degree Days 26 (Base 50)    
Moisture  
Dew Point 66 °F    
Average Humidity 74    
Maximum Humidity 93    
Minimum Humidity 46    
Precipitation  
Precipitation 0.01 in - - ()
Sea Level Pressure  
Sea Level Pressure 30.14 in    
Wind  
Wind Speed 4 mph (South)    
Max Wind Speed 9 mph    
Max Gust Speed 18 mph    
Visibility 10 miles    
Events Fog    
Averages and records for this station are not official NWS values.
T = Trace of Precipitation, MM = Missing Value Source: NWS Daily Summary

Daily Weather History Graph

Daily Weather History Graph

Search for Another Location

Airport or City:

Trip Planner

Search our weather history database for the weather conditions in past years. The results will help you decide how hot, cold, wet, or windy it might be!

Date:

Astronomy

May. 02, 2012 Rise Set
Actual Time 6:34 AM EDT 8:05 PM EDT
Civil Twilight 6:08 AM EDT 8:31 PM EDT
Nautical Twilight 5:37 AM EDT 9:03 PM EDT
Astronomical Twilight 5:04 AM EDT 9:36 PM EDT
Moon 4:27 PM EDT (5/2) 3:50 AM EDT (5/2)
Length of Visible Light 14h 22m
Length of Day
13h 30m
Waxing Gibbous, 83% of the Moon is Illuminated
May 2
Waxing Gibbous
May 5
Full
May 12
Last Quarter
May 20
New
May 28
First Quarter

Hourly Weather History & Observations

Time (EDT) Temp. Heat Index Dew Point Humidity Pressure Visibility Wind Dir Wind Speed Gust Speed Precip Events Conditions
12:56 AM 72.0 °F - 66.9 °F 84% 30.13 in 10.0 mi South 5.8 mph - N/A   Clear
1:56 AM 71.1 °F - 66.9 °F 87% 30.12 in 10.0 mi South 3.5 mph - 0.01 in   Clear
2:56 AM 71.1 °F - 66.9 °F 87% 30.10 in 10.0 mi South 3.5 mph - N/A   Clear
3:56 AM 68.0 °F - 64.9 °F 90% 30.10 in 10.0 mi SW 3.5 mph - N/A   Clear
4:56 AM 66.9 °F - 64.0 °F 90% 30.11 in 10.0 mi WSW 3.5 mph - N/A   Clear
5:56 AM 64.0 °F - 62.1 °F 93% 30.12 in 10.0 mi Calm Calm - N/A   Clear
6:56 AM 64.9 °F - 63.0 °F 93% 30.14 in 4.0 mi Calm Calm - N/A Fog Shallow Fog
7:56 AM 71.1 °F - 68.0 °F 90% 30.16 in 9.0 mi Calm Calm - N/A   Clear
8:56 AM 75.9 °F - 68.0 °F 76% 30.18 in 10.0 mi Calm Calm - N/A   Scattered Clouds
9:56 AM 75.0 °F - 66.9 °F 76% 30.19 in 10.0 mi North 3.5 mph - N/A   Scattered Clouds
10:56 AM 77.0 °F - 66.9 °F 71% 30.19 in 10.0 mi East 3.5 mph - N/A   Scattered Clouds
11:56 AM 82.0 °F 83.4 °F 64.0 °F 54% 30.17 in 10.0 mi Calm Calm - N/A   Scattered Clouds
12:56 PM 84.9 °F 85.4 °F 62.1 °F 46% 30.16 in 10.0 mi Calm Calm - N/A   Scattered Clouds
1:56 PM 87.1 °F 88.9 °F 64.9 °F 48% 30.14 in 10.0 mi East 9.2 mph - N/A   Scattered Clouds
2:56 PM 84.9 °F 87.6 °F 66.9 °F 55% 30.14 in 10.0 mi South 6.9 mph - N/A   Scattered Clouds
3:56 PM 82.9 °F 85.0 °F 66.0 °F 56% 30.13 in 10.0 mi South 8.1 mph - N/A   Partly Cloudy
4:56 PM 81.0 °F 83.0 °F 66.0 °F 60% 30.13 in 10.0 mi South 6.9 mph - N/A   Clear
5:56 PM 80.1 °F 81.7 °F 64.0 °F 58% 30.12 in 10.0 mi South 8.1 mph - N/A   Clear
6:56 PM 78.1 °F - 66.0 °F 66% 30.12 in 10.0 mi South 8.1 mph 18.4 mph N/A   Clear
7:56 PM 75.9 °F - 66.9 °F 74% 30.13 in 10.0 mi South 4.6 mph - N/A   Clear
8:56 PM 73.9 °F - 66.9 °F 79% 30.15 in 10.0 mi Calm Calm - N/A   Clear
9:56 PM 73.9 °F - 68.0 °F 82% 30.16 in 10.0 mi South 3.5 mph - N/A   Clear
10:56 PM 73.0 °F - 68.0 °F 84% 30.16 in 10.0 mi Calm Calm - N/A   Clear
11:56 PM 71.1 °F - 66.9 °F 87% 30.16 in 10.0 mi Calm Calm - N/A   Clear